EA3KZ-1 Weather Reports


time (UTC)temp
C
wind
direction
speed
KPH
gust
KPH
rain 1hr
cm
rain 24hr
cm
rain mn
cm
humidity
%
barometer
mb
20260505053039 12 52 1.6 3.2 0.00 0.20 0.00 81 1006.8
20260505052036 11 353 1.6 3.2 0.00 0.20 0.00 85 1006.8
20260505051034 11 225 0.0 3.2 0.00 0.20 0.00 86 1006.8
20260505041018 10 138 1.6 3.2 0.00 0.20 0.00 89 1007.1
20260505040015 10 153 1.6 3.2 0.00 0.20 0.00 88 1007.1
20260505035113 11 188 0.0 6.4 0.00 0.20 0.00 86 1007.0
20260505034110 11 135 0.0 3.2 0.00 0.20 0.00 84 1007.0
20260505033107 11 129 1.6 3.2 0.00 0.20 0.00 85 1007.0
20260505032105 11 120 1.6 3.2 0.00 0.20 0.00 86 1007.0
20260505031102 11 0.0 0.0 0.00 0.20 0.00 86 1007.0
20260505030059 12 0.0 3.2 0.00 0.20 0.00 84 1007.0
20260505025057 12 45 0.0 3.2 0.00 0.20 0.00 82 1006.8
20260505024054 12 234 1.6 3.2 0.00 0.20 0.00 81 1006.9
20260505023052 12 217 3.2 9.7 0.00 0.20 0.00 82 1007.1
20260505022054 12 199 3.2 6.4 0.00 0.20 0.00 82 1007.1
20260505021047 12 180 1.6 6.4 0.00 0.20 0.00 83 1007.1
20260505020044 12 195 1.6 6.4 0.00 0.20 0.00 83 1006.9
20260505015041 12 196 3.2 6.4 0.00 0.20 0.00 81 1006.8
20260505014039 12 230 4.8 11.3 0.00 0.20 0.00 80 1006.8
20260505013036 12 225 3.2 6.4 0.00 0.20 0.00 83 1007.1
20260505012039 12 274 4.8 9.7 0.00 0.20 0.00 83 1007.1
20260505011031 12 176 8.0 12.9 0.00 0.20 0.00 82 1007.1
20260505010028 12 195 8.0 14.5 0.00 0.20 0.00 83 1007.2
20260505005026 12 167 4.8 11.3 0.00 0.20 0.00 84 1007.2
20260505004023 12 177 6.4 11.3 0.00 0.20 0.00 82 1007.1
20260505003025 12 171 6.4 12.9 0.00 0.20 0.00 82 1007.2
20260505001114 12 169 8.0 14.5 0.00 0.20 0.00 81 1007.2
20260505000117 12 237 8.0 14.5 0.00 0.20 0.00 80 1007.1
20260504235109 12 232 8.0 12.9 0.00 0.20 0.20 81 1007.1
20260504234107 12 214 6.4 11.3 0.00 0.20 0.20 82 1007.3
20260504233104 12 229 8.0 14.5 0.00 0.20 0.20 82 1007.2
20260504232101 12 198 6.4 11.3 0.00 0.20 0.20 83 1007.3
20260504231059 12 188 8.0 14.5 0.00 0.20 0.20 88 1007.3
20260504230056 12 183 6.4 12.9 0.00 0.20 0.20 90 1007.2
20260504225054 12 198 6.4 14.5 0.00 0.20 0.20 91 1007.2
20260504224051 12 174 3.2 11.3 0.00 0.20 0.20 92 1007.1
20260504223048 12 178 3.2 6.4 0.00 0.20 0.20 92 1007.0
20260504222046 12 177 3.2 6.4 0.00 0.20 0.20 91 1007.1
20260504221043 12 197 4.8 9.7 0.00 0.20 0.20 90 1007.1
20260504220041 12 141 3.2 6.4 0.00 0.20 0.20 89 1007.1
20260504215038 13 146 1.6 3.2 0.00 0.20 0.20 88 1007.1
20260504214036 13 119 3.2 6.4 0.00 0.20 0.20 88 1007.1
20260504213033 13 119 1.6 6.4 0.00 0.20 0.20 88 1007.0
20260504212030 13 109 3.2 6.4 0.05 0.20 0.20 86 1007.1
20260504211027 13 314 4.8 6.4 0.15 0.20 0.20 85 1006.9
20260504210025 13 290 3.2 9.7 0.15 0.20 0.20 87 1007.2
20260504205022 13 274 6.4 12.9 0.15 0.20 0.20 88 1007.2
20260504204019 13 285 4.8 9.7 0.18 0.20 0.20 89 1007.2
20260504203017 13 222 3.2 9.7 0.18 0.20 0.20 90 1007.2
20260504202114 13 242 4.8 11.3 0.13 0.15 0.15 88 1007.5
20260504201112 13 196 9.7 20.9 0.03 0.05 0.05 87 1007.7
20260504200109 13 192 9.7 24.1 0.03 0.05 0.05 84 1007.7
20260504195107 13 151 11.3 24.1 0.03 0.05 0.05 86 1007.4
20260504194104 15 198 6.4 14.5 0.00 0.03 0.03 89 1007.1
20260504193102 15 147 4.8 9.7 0.00 0.03 0.03 88 1006.8
20260504192059 15 144 6.4 14.5 0.00 0.03 0.03 87 1006.8
20260504191057 15 104 1.6 6.4 0.00 0.03 0.03 87 1006.7
20260504190054 16 79 3.2 6.4 0.00 0.03 0.03 86 1006.6
20260504185051 16 117 1.6 6.4 0.00 0.03 0.03 85 1006.6
20260504184049 16 82 3.2 9.7 0.00 0.03 0.03 85 1006.5
20260504183046 16 100 3.2 6.4 0.00 0.03 0.03 84 1006.4
20260504182043 16 125 1.6 6.4 0.00 0.03 0.03 83 1006.1
20260504181040 16 123 1.6 6.4 0.00 0.03 0.03 82 1005.9
20260504180037 16 164 1.6 6.4 0.00 0.03 0.03 82 1005.9
20260504175035 16 78 1.6 9.7 0.00 0.03 0.03 82 1005.9
20260504174032 16 39 4.8 9.7 0.00 0.03 0.03 82 1006.1
20260504173029 16 347 4.8 11.3 0.00 0.03 0.03 82 1006.1
20260504172027 16 311 4.8 9.7 0.00 0.03 0.03 82 1006.1
20260504171024 16 22 4.8 12.9 0.00 0.03 0.03 81 1006.2
20260504160106 17 45 1.6 6.4 0.00 0.03 0.03 82 1006.7
20260504151053 16 68 0.0 3.2 0.03 0.03 0.03 84 1006.7
20260504141036 17 207 1.6 6.4 0.00 0.00 0.00 81 1007.3
20260504081102 18 101 1.6 6.4 0.00 0.00 0.00 72 1008.1